Regional Weather Roundup
Issued by NWS

Home | Current Version | Previous Version | Text Only | Print | Product List | Glossary Off
Versions: 1 2 3 4 5 6 7 8 9 10 11 12 13 14 15 16 17 18 19 20 21 22 23 24 25 26 27 28 29 30 31 32 33 34 35 36 37 38 39 40 41 42 43 44 45 46 47 48 49 50

897
ASUS43 KMKX 080859
RWRWI

WISCONSIN REGIONAL WEATHER ROUNDUP
NATIONAL WEATHER SERVICE MILWAUKEE/SULLIVAN WI
300 AM CST MON FEB 08 2016

NOTE: "FAIR" INDICATES FEW OR NO CLOUDS BELOW 12,000 FEET WITH NO
SIGNIFICANT WEATHER AND/OR OBSTRUCTIONS TO VISIBILITY.

WIZ001-002-006>008-014>016-023>028-081000-
NORTHWEST WISCONSIN

CITY           SKY/WX    TMP DP  RH WIND       PRES   REMARKS
SUPERIOR ARPT  LGT SNOW  16  10  79 NW10G20   29.75R WCI   3
ASHLAND        LGT SNOW  25  25 100 N6        29.66R FOG     WCI  18
HAYWARD        LGT SNOW  17  13  84 MISG      29.67R FOG
SIREN          LGT SNOW  15  10  83 NW12      29.74R WCI   1
CUMBERLAND     FLURRIES  16  10  79 NW14      29.68R WCI   1
RICE LAKE      FLURRIES  17  11  77 NW12G17   29.70R WCI   4
CHETEK         LGT SNOW  17  12  81 NW7       29.68R WCI   7
LADYSMITH      FLURRIES  21  17  85 NW15G21   29.64R WCI   8
EAU CLAIRE     NOT AVBL
MENOMONIE      FLURRIES  19  11  73 NW18G25   29.71R WCI   3
NEW RICHMOND   LGT SNOW  15  10  81 NW17      29.74R WCI  -1
OSCEOLA        LGT SNOW  15  10  80 NW16G23   29.79R WCI   0
$$

WIZ003>005-009-010-017-018-081000-
NORTH CENTRAL WISCONSIN

CITY           SKY/WX    TMP DP  RH WIND       PRES   REMARKS
MANITOWISH WTR LGT SNOW  25  25 100 CALM      29.52R
ARBOR VITAE    FLURRIES  27  24  88 W3        29.52S
WOODRUFF       FLURRIES  27  24  88 W3        29.52S
RHINELANDER    LGT SNOW  26  23  88 W8        29.52S FOG     WCI  18
EAGLE RIVER    FLURRIES  28  26  94 NW6       29.51S WCI  21
LAND O LAKES   LGT SNOW  28  27  95 CALM      29.52S
PHILLIPS       LGT SNOW  22  19  90 NW13      29.56S WCI  10
TOMAHAWK       CLOUDY    25  21  87 W7        29.55S FOG     WCI  17
MEDFORD        LGT SNOW  21  19  92 NW9       29.57S WCI  11
MERRILL        LGT SNOW  26  24  93 NW12      29.56S WCI  15
$$

WIZ029-030-035-036-043>047-081000-
CENTRAL WISCONSIN

CITY           SKY/WX    TMP DP  RH WIND       PRES   REMARKS
WAUSAU         CLOUDY    27  22  81 NW12      29.55S WCI  17
MOSINEE        CLOUDY    27  25  93 W3G10     29.57S
MARSHFIELD     LGT SNOW  22  16  78 NW13      29.58R WCI  10
STEVENS POINT  CLOUDY    25  21  83 W7        29.58R WCI  18
WAUPACA        CLOUDY    32  26  77 W13       29.58R WCI  23
WAUTOMA        CLOUDY    30  25  80 NW12      29.59S WCI  21
WISC RAPIDS    CLOUDY    25  19  78 NW12      29.61R WCI  14
CAMP DOUGLAS   LGT SNOW  23  23 100 W15       29.63R FOG     WCI  10
$$

WIZ011>013-019>022-031-037>040-048>050-081000-
NORTHEAST WISCONSIN

CITY           SKY/WX    TMP DP  RH WIND       PRES   REMARKS
ANTIGO         CLOUDY    28  25  90 W10       29.52S WCI  18
SHAWANO        CLOUDY    36  31  85 W3        29.55R
OCONTO         CLOUDY    33  28  82 CALM      29.54S
STURGEON BAY   CLOUDY    34  27  75 SW5       29.56F WCI  30
GREEN BAY      CLOUDY    34  29  82 S3        29.55S
MANITOWOC      NOT AVBL
APPLETON       DRIZZLE   32  32 100 W10       29.54S WCI  24
CLINTONVILLE   CLOUDY    32  28  86 W6        29.56R WCI  26
OSHKOSH        CLOUDY    32  27  81 NW14      29.56S WCI  22
$$

WIZ032>034-041-042-053>061-081000-
SOUTHWEST WISCONSIN

CITY           SKY/WX    TMP DP  RH WIND       PRES   REMARKS
LA CROSSE      FLURRIES  20  13  74 NW17      29.69S WCI   5
SPARTA         LGT SNOW  22  19  88 NW9G16    29.67S WCI  12
VIROQUA        CLOUDY    20  19  94 W13       29.64R WCI   8
BOSCOBEL       LGT SNOW  24  21  88 W8        29.68R FOG     WCI  15
PRAIRIE DU CHI MIX PCPN  23  18  81 W14G23    29.70S WCI  10
PLATTEVILLE    CLOUDY    27  22  82 W16G24    29.64S WCI  15
$$

WIZ056-057-062-063-064-067-068-081000-
SOUTH CENTRAL WISCONSIN

CITY           SKY/WX    TMP DP  RH WIND       PRES   REMARKS
REEDSBURG      CLOUDY    27  20  74 NW12G21   29.61R WCI  17
BARABOO/DELLS  CLOUDY    29  22  76 NW9G16    29.60R WCI  20
LONE ROCK      NOT AVBL
MINERAL POINT  CLOUDY    28  21  74 W13G22    29.62S WCI  18
MADISON        CLOUDY    32  27  81 NW8       29.59R WCI  25
MIDDLETON      CLOUDY    32  29  88 W14       29.60R WCI  22
WATERTOWN      FLURRIES  32  32 100 SW6       29.58S WCI  26
MONROE         CLOUDY    30  23  74 W22G28    29.61R WCI  17
JANESVILLE     CLOUDY    34  32  93 SW7       29.59F WCI  28
$$

WIZ051-052-058>065-066-070>072-081000-
SOUTHEAST WISCONSIN

CITY           SKY/WX    TMP DP  RH WIND       PRES   REMARKS
MILWAUKEE      MOCLDY    31  27  85 SW7       29.59F WCI  24
WAUKESHA       CLOUDY    30  28  93 SW7       29.59F WCI  23
MILWAUKEE/TIMM CLOUDY    32  27  80 SW3       29.59F
RACINE         PTCLDY    30  25  81 SW6       29.61F WCI  24
BURLINGTON     CLOUDY    30  27  89 SW8       29.60F WCI  22
KENOSHA        MOCLDY    31  27  85 SW8       29.60F WCI  23
FOND DU LAC    LGT SNOW  33  30  88 W7        29.56S FOG     WCI  27
SHEBOYGAN      CLOUDY    31  26  82 SW6       29.56F WCI  25
WEST BEND      CLOUDY    32  28  86 CALM      29.58S
JUNEAU         MIX PCPN  32  31  96 SW8       29.58S WCI  25
$$

LSZ147-162-081000-
LAKE SUPERIOR

STATION/POSITION TIME  TEMP    WIND        PRES    WAVE
                       AIR SEA DIR/SP/G            HT/PER
                 (UTC) (F)     (DEG/KT/KT) (MB)    (FT/S)
DEVILS ISLAND    0800   23     350/ 21/ 22 1005.4R
PORT WING        0840   24     340/ 19/ 24 1006.1R
SAXON HARBOR     0800   27                 1003.4R
$$

LMZ867-665-643>646-081000-
LAKE MICHIGAN

STATION/POSITION TIME  TEMP    WIND        PRES    WAVE
                       AIR SEA DIR/SP/G            HT/PER
                 (UTC) (F)     (DEG/KT/KT) (MB)    (FT/S)
CHAMBERS ISLAND  0800   34     170/  4/  7 1001.0S
NORTHPORT PIER   0800   35      CALM  /  4 1000.7F
KEWAUNEE LAKESHO 0800   34     250/  4/  7 1000.3F
SHEBOYGAN LAKESH 0800   33     230/  9/ 10 1002.4F
PORT WASHINGTON  0800   32     250/  4/  8 1003.0
MILWAUKEE LAKESH 0810   33     240/ 10/ 11   N/A
KENOSHA   LAKESH 0800   33     230/  8/ 10 1003.4F
$$

TC  - TEMPERATURE IN CELSIUS
VSB - VISIBILITY IN STATUTE MILES
WCI - WIND CHILL INDEX
HX  - HEAT INDEX





USA.gov is the U.S. government's official web portal to all federal, state and local government web resources and services.